Total_Precipitation_Accumulation
2.26 2.19 2.71 3.67 4.14 3.63 3.21 2.55 2.16 2.05 1.76 1.40 1.09 1.07 1.33 1.73 2.14 2.47 2.70 2.55 1.80 1.42 1.48 2.18 2.77 2.49 2.02 1.73 1.63 1.65 1.58 1.64 1.57 1.51 1.35 1.26 1.13 1.00 0.85 0.76 0.80 0.80 0.73 0.68 0.67 0.76 0.78 0.79 0.96
1.69 2.51 3.30 4.17 3.72 3.06 2.95 2.55 2.33 1.94 1.39 1.12 0.83 0.78 0.90 0.93 0.95 1.46 2.54 2.51 1.62 1.31 1.37 1.65 2.29 2.17 1.78 1.58 1.57 1.68 1.64 1.72 1.63 1.46 1.30 1.19 1.18 1.11 1.00 0.94 1.02 0.82 0.73 0.70 0.71 0.79 0.86 0.83 0.95
1.83 2.90 3.84 4.05 2.93 2.65 2.76 2.58 2.18 1.61 1.15 1.04 0.84 0.77 0.96 1.15 1.17 1.62 2.26 1.83 1.39 1.28 1.34 1.79 2.28 2.05 1.78 1.59 1.66 1.73 1.74 1.74 1.55 1.33 1.16 1.17 1.20 1.18 1.17 1.17 1.11 0.85 0.76 0.70 0.70 0.79 0.83 0.84 0.90
2.12 3.20 3.49 3.25 2.67 2.25 2.26 2.27 1.79 1.45 1.13 0.79 0.77 0.81 0.85 1.19 1.21 1.48 1.55 1.32 1.18 1.29 1.35 1.69 2.14 2.00 1.78 1.61 1.69 1.74 1.80 1.78 1.67 1.42 1.19 1.19 1.20 1.19 1.16 1.22 1.08 0.95 0.84 0.73 0.73 0.79 0.85 0.85 0.88
2.50 3.31 3.29 2.90 2.60 2.24 1.90 1.61 1.40 1.30 1.13 0.86 0.74 0.94 1.24 1.58 1.39 1.32 1.29 1.23 1.09 1.20 1.22 1.40 1.84 1.88 1.73 1.64 1.79 1.86 1.88 1.93 1.86 1.58 1.37 1.28 1.20 1.19 1.20 1.25 1.11 1.02 0.94 0.88 0.87 0.89 0.90 0.87 0.91
2.78 2.90 3.17 2.83 2.54 2.28 2.19 1.62 1.39 1.27 0.99 0.83 0.80 1.03 1.63 1.91 1.60 1.44 1.30 1.36 1.33 1.31 1.20 1.15 1.56 1.73 1.68 1.67 1.74 1.81 1.84 1.85 1.83 1.58 1.41 1.30 1.20 1.15 1.24 1.30 1.15 1.08 0.96 0.90 0.92 0.94 0.98 0.95 0.93
2.71 2.81 2.92 2.44 2.46 2.64 2.32 1.65 1.47 1.24 1.12 0.91 0.73 1.12 1.70 2.00 1.67 1.43 1.39 1.44 1.53 1.48 1.40 1.22 1.28 1.46 1.68 1.76 1.74 1.69 1.65 1.68 1.73 1.50 1.36 1.24 1.17 1.09 1.14 1.20 1.12 1.10 1.08 1.04 0.99 1.03 1.06 0.97 0.98
2.01 2.29 2.43 2.39 2.51 2.73 2.02 1.52 1.19 1.06 0.99 0.78 0.68 1.08 1.52 1.53 1.43 1.42 1.56 1.71 1.85 1.67 1.52 1.29 1.22 1.28 1.32 1.47 1.60 1.70 1.72 1.68 1.72 1.49 1.29 1.19 1.11 1.00 1.04 1.01 1.00 1.08 1.17 1.25 1.22 1.19 1.12 1.10 1.03
1.84 2.45 2.79 2.80 2.52 2.15 1.41 1.26 1.07 0.84 0.89 0.81 0.66 0.71 0.88 0.96 1.09 1.30 1.40 1.53 1.63 1.39 1.29 1.33 1.33 1.32 1.34 1.28 1.35 1.59 1.69 1.69 1.56 1.43 1.28 1.12 0.88 0.77 0.84 0.86 1.08 1.20 1.35 1.42 1.43 1.37 1.29 1.17 1.02
1.91 2.62 2.66 2.12 1.85 1.56 1.12 1.08 0.97 0.96 1.01 0.94 0.73 0.70 0.81 0.87 1.07 1.23 1.16 1.16 1.11 1.03 1.00 1.08 1.14 1.29 1.32 1.19 1.40 1.65 1.49 1.39 1.16 1.16 1.00 0.96 0.89 0.84 0.70 0.81 1.13 1.29 1.34 1.34 1.43 1.50 1.30 1.01 0.76
1.55 2.07 1.88 1.66 1.42 1.20 1.04 1.07 0.93 0.97 1.10 0.96 0.77 0.76 0.94 1.02 1.01 0.97 0.93 0.94 0.89 0.88 0.85 0.84 0.91 1.02 1.12 1.27 1.51 1.78 1.83 1.63 1.40 1.17 1.06 1.01 0.89 0.79 0.74 0.76 0.86 0.97 1.03 0.96 1.01 1.02 0.87 0.77 0.71
1.37 1.35 1.36 1.56 1.30 1.21 1.02 1.00 1.00 0.96 1.00 0.86 0.72 0.72 0.88 1.03 1.05 0.90 0.75 0.69 0.66 0.72 0.82 0.68 0.60 0.78 0.95 1.06 1.19 1.45 1.52 1.44 1.32 1.12 1.01 1.06 1.00 0.88 0.86 0.83 0.86 0.88 0.88 0.97 0.97 1.01 0.95 0.78 0.69
1.66 1.44 1.23 1.21 1.23 1.28 1.08 1.01 1.00 0.97 0.86 0.77 0.73 0.84 0.91 0.89 0.89 0.82 0.67 0.58 0.61 0.72 0.80 0.73 0.62 0.63 0.70 0.76 0.87 0.99 1.16 1.26 1.26 1.19 1.00 0.99 1.00 0.95 0.94 0.87 0.89 0.80 0.79 0.89 0.97 1.00 1.01 0.92 0.78
1.48 1.32 1.31 1.29 1.23 1.23 1.23 0.99 0.98 1.16 0.87 0.79 0.83 0.92 0.89 0.81 0.80 0.86 0.74 0.65 0.60 0.64 0.77 0.77 0.68 0.66 0.68 0.66 0.67 0.68 0.83 0.99 1.11 1.11 1.01 1.04 1.04 0.96 0.99 0.95 0.94 0.90 0.83 0.87 1.07 1.03 1.06 1.03 0.94
1.36 1.51 1.45 1.37 1.28 1.28 1.22 1.29 1.18 1.11 0.93 0.87 0.87 0.86 0.84 0.78 0.77 0.86 0.79 0.67 0.60 0.60 0.66 0.73 0.72 0.75 0.78 0.74 0.73 0.61 0.65 0.74 0.88 1.00 1.01 1.07 1.01 0.91 0.95 0.95 0.91 0.90 0.92 0.95 1.02 1.04 1.09 0.99 0.93
1.65 1.79 1.88 1.60 1.39 1.21 1.23 1.57 1.43 1.17 0.99 1.01 0.95 0.84 0.81 0.77 0.71 0.75 0.74 0.72 0.68 0.67 0.71 0.78 0.80 0.83 0.85 0.84 0.85 0.79 0.82 0.88 0.92 1.05 1.01 0.98 1.04 1.00 0.99 1.00 1.00 1.03 1.08 1.07 1.09 1.15 1.14 1.08 1.09
1.80 1.79 1.65 1.54 1.28 1.07 1.10 1.34 1.35 1.22 1.00 0.88 0.86 0.77 0.67 0.59 0.54 0.53 0.54 0.56 0.60 0.61 0.64 0.70 0.80 0.82 0.83 0.85 0.93 1.05 1.10 1.11 1.09 1.13 1.08 0.99 0.99 1.03 1.13 1.16 1.20 1.17 1.20 1.22 1.19 1.22 1.13 1.14 1.17
1.75 1.44 1.23 1.19 1.12 0.99 0.91 1.00 1.06 1.09 0.95 0.76 0.65 0.60 0.57 0.48 0.42 0.38 0.36 0.38 0.44 0.50 0.54 0.59 0.66 0.82 0.96 0.99 0.99 1.13 1.20 1.27 1.36 1.41 1.29 1.16 1.19 1.31 1.47 1.55 1.47 1.46 1.47 1.47 1.44 1.50 1.39 1.25 1.28
1.28 1.24 1.10 0.94 0.91 0.93 0.84 0.83 0.88 0.87 0.84 0.71 0.57 0.45 0.42 0.38 0.31 0.27 0.24 0.27 0.31 0.35 0.40 0.47 0.53 0.70 0.83 0.89 0.99 1.18 1.36 1.53 1.68 1.79 1.68 1.54 1.50 1.68 1.81 1.74 1.82 1.84 1.73 1.74 1.80 1.86 1.80 1.59 1.46
1.11 1.13 1.00 0.85 0.73 0.72 0.73 0.75 0.78 0.74 0.73 0.61 0.49 0.40 0.32 0.26 0.23 0.19 0.15 0.16 0.20 0.23 0.27 0.33 0.40 0.50 0.63 0.79 1.02 1.22 1.52 1.61 1.70 1.82 1.86 1.79 1.73 1.89 1.94 2.02 2.11 2.16 2.16 2.10 2.01 2.14 2.26 1.99 1.73
0.91 0.98 0.89 0.80 0.69 0.64 0.61 0.76 0.75 0.69 0.65 0.57 0.44 0.35 0.27 0.21 0.18 0.13 0.12 0.12 0.17 0.18 0.19 0.26 0.38 0.50 0.71 0.95 1.27 1.56 1.81 1.89 1.93 1.87 1.92 2.00 2.04 2.11 2.15 2.20 2.28 2.31 2.16 2.17 2.27 2.41 2.74 2.54 2.17
0.88 0.66 0.60 0.59 0.67 0.67 0.59 0.85 0.65 0.55 0.55 0.50 0.42 0.38 0.30 0.21 0.16 0.14 0.13 0.12 0.13 0.17 0.22 0.34 0.51 0.70 0.96 1.29 1.65 1.89 2.13 2.23 2.08 2.05 2.08 2.08 2.03 2.06 2.18 2.18 2.18 2.16 2.11 2.18 2.25 2.31 2.71 2.90 2.61
0.59 0.51 0.59 0.60 0.59 0.52 0.41 0.56 0.55 0.46 0.52 0.43 0.35 0.35 0.34 0.28 0.21 0.18 0.19 0.19 0.23 0.30 0.38 0.54 0.79 1.09 1.37 1.60 1.78 1.98 2.11 2.14 2.11 2.06 2.05 1.99 1.95 1.93 1.96 1.97 2.06 2.10 2.15 2.20 2.37 2.49 2.75 2.78 2.77
0.42 0.50 0.63 0.65 0.65 0.66 0.36 0.44 0.54 0.44 0.42 0.37 0.33 0.31 0.28 0.26 0.25 0.25 0.28 0.34 0.41 0.47 0.61 0.79 0.98 1.27 1.45 1.56 1.67 1.85 2.00 2.05 2.05 2.02 2.02 2.02 2.00 1.90 1.84 1.81 1.88 2.01 2.17 2.22 2.31 2.46 2.70 2.82 2.90
0.41 0.67 0.95 0.98 0.93 0.70 0.35 0.50 0.60 0.45 0.36 0.32 0.32 0.31 0.28 0.32 0.35 0.35 0.43 0.57 0.66 0.69 0.79 0.94 1.04 1.23 1.34 1.38 1.45 1.59 1.65 1.71 1.77 1.75 1.71 1.66 1.62 1.63 1.68 1.75 1.83 1.96 2.07 2.14 2.26 2.40 2.46 2.57 2.81
0.37 0.57 0.94 1.02 0.88 0.64 0.47 0.71 0.66 0.44 0.35 0.33 0.33 0.31 0.33 0.44 0.53 0.62 0.74 0.83 0.90 0.91 0.89 0.93 1.07 1.12 1.10 1.12 1.12 1.25 1.33 1.39 1.45 1.44 1.43 1.46 1.51 1.54 1.50 1.54 1.62 1.83 2.02 2.10 2.20 2.22 2.19 2.24 2.43
0.36 0.40 0.46 0.66 0.62 0.65 0.62 0.80 0.75 0.45 0.39 0.34 0.34 0.36 0.43 0.58 0.77 0.98 1.15 1.25 1.32 1.24 1.06 0.93 0.94 0.94 0.92 0.98 1.02 1.08 1.16 1.20 1.22 1.24 1.19 1.29 1.34 1.35 1.31 1.34 1.37 1.48 1.69 1.94 2.09 2.05 1.96 1.92 2.08
0.30 0.40 0.52 0.77 0.94 0.90 0.81 0.94 0.92 0.65 0.53 0.45 0.46 0.56 0.70 0.91 1.20 1.45 1.67 1.79 1.76 1.57 1.32 1.04 0.88 0.85 0.82 0.86 0.92 0.99 1.02 1.02 1.00 1.04 0.97 1.03 1.12 1.12 1.12 1.12 1.20 1.34 1.45 1.65 1.87 1.96 1.89 1.87 1.93
0.34 0.48 0.60 0.76 0.83 1.05 1.18 1.20 0.97 0.87 0.76 0.73 0.80 0.96 1.17 1.43 1.62 1.77 1.92 1.97 1.71 1.53 1.29 1.04 0.88 0.89 0.91 0.93 0.95 0.94 0.89 0.87 0.85 0.83 0.80 0.84 0.91 0.91 0.94 1.11 1.18 1.24 1.32 1.51 1.78 1.96 1.97 1.89 1.89
0.45 0.65 0.85 1.16 1.07 1.02 1.24 1.29 0.93 0.86 0.90 0.93 1.05 1.11 1.23 1.38 1.39 1.47 1.55 1.51 1.47 1.41 1.23 1.06 0.97 0.97 1.02 1.04 1.06 0.98 0.89 0.82 0.79 0.76 0.68 0.69 0.67 0.67 0.79 0.92 0.97 1.02 1.07 1.25 1.54 1.74 1.78 1.76 1.67